#timestamp,LO_Frequency,Hit,StdDev 
1632578415.1,286047000.8,N
1632578435.9,286047000.0,N
1632578455.7,286047001.6,N
1632578475.5,286047001.5,N
1632578495.4,286047004.3,Y
1632578515.2,286046999.9,P
1632578535.0,286047002.4,P
1632578535.9,286047002.4,N
1632578555.8,286047000.9,N
1632578575.6,286047001.2,N
1632578595.5,286046998.1,N
1632578615.3,286046999.8,N
1632578635.1,286047000.6,N
1632578655.9,286047001.1,N
1632578675.7,286046998.8,N
1632578695.6,286046998.1,N
1632578715.4,286047000.7,N
1632578735.2,286046998.3,N
1632578755.1,286046996.5,N
1632578756.0,286046996.5,N
1632578775.8,286046996.9,N
1632578795.7,286046999.2,N
1632578815.5,286046996.6,N
1632578835.3,286046999.6,N
1632578855.2,286046999.1,N
1632578875.0,286047001.1,N
1632578875.9,286047001.1,N
1632578895.8,286047000.2,N
1632578915.6,286046998.5,N
1632578935.4,286046998.1,N
1632578955.3,286046999.5,N
1632578975.1,286047001.2,N
1632578995.9,286047000.7,N
1632579015.7,286047000.7,N
1632579035.5,286047000.5,N
1632579055.4,286047000.4,N
1632579075.2,286047000.0,N
1632579095.0,286047002.5,N
1632579095.9,286047002.5,N
1632579115.8,286046999.9,N
1632579135.6,286047002.6,N
1632579155.5,286047002.3,N
1632579175.3,286047002.2,N
1632579195.1,286047002.0,N
1632579215.9,286046999.8,N
1632579235.7,286047000.7,N
1632579255.6,286046998.2,N
1632579275.4,286047000.4,N
1632579295.2,286047000.2,N
1632579315.1,286047000.6,N
1632579316.0,286047000.6,N
1632579335.8,286046998.5,N
1632579355.6,286046998.4,N
1632579375.5,286046998.6,N
1632579395.3,286047000.4,N
1632579415.2,286047000.0,N
1632579435.0,286047002.3,N
1632579435.9,286047002.3,N
1632579455.7,286047000.5,N
1632579475.6,286047000.9,N
1632579495.4,286047002.3,N
1632579515.3,286047000.0,N
1632579535.1,286047002.4,N
1632579555.8,286046999.8,N
1632579575.7,286047000.6,N
1632579595.5,286047000.9,N
1632579615.4,286047002.3,N
1632579635.2,286047001.6,N
1632579655.0,286047000.9,N
1632579655.9,286047000.9,N
1632579675.8,286047000.8,N
1632579695.6,286047000.9,N
1632579715.5,286046999.7,N
1632579735.3,286047000.5,N
1632579755.1,286046998.5,N
1632579775.9,286046998.4,N
1632579795.7,286046998.4,N
1632579815.5,286046999.1,N
1632579835.4,286046999.1,N
1632579855.2,286046999.6,N
1632579875.1,286047001.1,N
1632579876.0,286047001.1,N
1632579895.8,286047001.0,N
1632579915.6,286046999.4,N
1632579935.5,286047000.8,N
1632579955.3,286047000.6,N
1632579975.2,286047001.0,N
1632579995.9,286047000.8,N
1632580015.7,286046998.4,N
1632580035.6,286046998.5,N
1632580055.4,286046998.2,N
1632580075.2,286047000.5,N
1632580095.1,286046998.6,N
1632580096.0,286046998.6,N
1632580115.8,286046998.1,N
1632580135.7,286047001.0,N
1632580155.5,286047000.9,N
1632580175.3,286047000.7,N
1632580195.2,286046998.8,N
1632580215.0,286046998.6,N
1632580215.9,286046998.6,N
1632580235.8,286046999.4,N
1632580255.6,286046999.5,N
1632580275.4,286046998.9,N
1632580295.3,286047000.4,N
1632580315.1,286046996.6,Y
1632580335.8,286046996.9,P
1632580355.7,286046999.2,N
1632580375.5,286046997.1,N
1632580395.4,286046997.1,N
1632580415.2,286046996.6,N
1632580435.0,286046997.3,N
1632580435.9,286046997.3,N
1632580455.8,286046995.1,Y
1632580475.6,286046999.6,P
1632580495.5,286046996.6,P
1632580515.3,286046996.9,N
1632580535.1,286046999.2,N
1632580555.9,286047001.1,N
1632580575.7,286047000.6,N
1632580595.5,286047000.6,N
1632580615.4,286047001.2,N
1632580635.2,286046999.1,N
1632580655.1,286046998.9,N
1632580656.0,286046998.9,N
1632580675.8,286046996.6,N
1632580695.6,286046996.8,N
1632580715.5,286046995.2,N
1632580735.3,286046996.0,N
1632580755.2,286046994.1,Y
1632580775.9,286046997.3,P
1632580795.7,286046997.5,P
1632580815.6,286046997.6,P
1632580835.4,286046995.8,Y
1632580855.3,286046999.5,P
1632580875.1,286046997.8,N
1632580876.0,286046997.8,N
1632580895.8,286046997.2,Y
1632580915.7,286046998.6,P
1632580935.5,286047001.1,P
1632580955.4,286047000.4,N
1632580975.2,286047000.3,N
1632580995.0,286047000.0,N
1632580995.9,286047000.0,N
1632581015.8,286047002.2,N
1632581035.6,286047004.0,Y
1632581055.4,286047004.2,P
1632581075.3,286047003.8,N
1632581095.1,286047001.8,N
1632581115.9,286047002.8,N
1632581135.7,286046999.7,N
1632581155.5,286047002.8,N
1632581175.4,286047000.7,N
1632581195.2,286046998.9,N
1632581215.0,286046998.8,N
1632581216.0,286046998.8,N
1632581235.8,286046998.2,N
1632581255.6,286047002.7,N
1632581275.5,286047002.6,N
1632581295.3,286047001.3,N
1632581315.1,286047001.5,N
1632581335.9,286047002.0,N
1632581355.7,286047002.0,N
1632581375.6,286047001.5,N
1632581395.4,286047002.3,N
1632581415.2,286047002.6,N
1632581435.1,286047004.0,N
1632581436.0,286047004.0,N
1632581455.8,286047004.4,N
1632581475.6,286047003.6,N
1632581495.5,286047004.2,N
1632581515.3,286047003.1,N
1632581535.2,286047004.1,N
1632581555.9,286047004.2,N
1632581575.7,286047005.7,Y
1632581595.6,286047003.5,P
1632581615.4,286047004.0,P
1632581635.3,286047003.6,P
1632581655.1,286047003.6,Y
1632581656.0,286047003.6,P
1632581675.8,286047001.6,P
1632581695.7,286047001.6,N
1632581715.5,286047003.5,Y
1632581735.4,286047002.1,P
1632581755.2,286047003.1,P
1632581775.0,286047005.2,P
1632581775.9,286047005.2,Y
1632581795.8,286047002.3,P
1632581815.6,286047000.1,N
1632581835.5,286046998.1,N
1632581855.3,286047000.8,N
1632581875.1,286047000.5,N
1632581895.9,286047000.3,N
1632581915.7,286047000.5,N
1632581935.5,286047002.5,N
1632581955.4,286047002.6,N
1632581975.2,286047001.7,N
1632581995.1,286047007.6,Y
1632581996.0,286047007.6,P
